Regional Weather Roundup
Issued by NWS Grand Forks, ND

Home | Current Version | Previous Version | Graphics & Text | Print | Product List | Glossary On
Versions: 1 2 3 4 5 6 7 8 9 10 11 12 13 14 15 16 17 18 19 20 21 22 23 24 25 26 27 28 29 30 31 32 33 34 35 36 37 38 39 40 41 42 43 44 45 46 47 48 49 50
000
ASUS43 KFGF 192031
RWRFGF
PRAIRIE TO PINES  WEATHER ROUNDUP
NATIONAL WEATHER SERVICE EASTERN NORTH DAKOTA/GRAND FORKS ND
300 PM CDT TUE AUG 19 2014

 **SATELLITE DATA USED TO AUGMENT SKY COVER AT AUTOMATED STATIONS**
 *****  WEATHER ACROSS EASTERN NORTH DAKOTA  *****

CITY           SKY/WX    TMP DP  RH WIND       PRES   REMARKS
GRAND FORKS    MOSUNNY   82  62  50 VRB3      29.73F
GRAND FRKS AFB MOSUNNY   80  67  64 VRB5      29.75S
GRAND FRKS NWS   N/A     32 N/A N/A NW1         N/A
DEVILS LAKE    CLOUDY    82  63  51 S5        29.73F
FARGO          MOSUNNY   80  64  58 N5        29.75S
WAHPETON ARPT  PTCLDY    79  59  50 W5        29.76S
$$

 ***** WEATHER ACROSS CENTRAL AND WESTERN NORTH DAKOTA  *****

CITY           SKY/WX    TMP DP  RH WIND       PRES   REMARKS
BISMARCK       PTSUNNY   86  62  44 VRB3      29.76S
MINOT          SUNNY     85  53  33 CALM      29.72F
JAMESTOWN      MOSUNNY   81  63  54 NW5       29.76S
MINOT AFB      SUNNY     84  58  39 W5        29.72F
GARRISON         N/A     83  60  45 S3        29.75S
WILLISTON      SUNNY     89  51  27 SE10      29.70F
DICKINSON      SUNNY     85  58  39 S10       29.75F
HETTINGER      SUNNY     86  55  34 SE8       29.78F
$$

 *****  OTHER AIRPORT OBSERVATIONS IN OUR AREA  *****

CITY           SKY/WX    TMP DP  RH WIND       PRES   REMARKS
WALHALLA       MOCLDY    79  66  65 E5          N/A
GRAFTON AIRPOR FAIR      81  63  54 CALM      29.74S
VALLEY CITY AR FAIR      81  63  54 NW8       29.76F
CANDO          FAIR      82  61  47 W7        29.75S
CAVALIER APRT  FAIR      81  64  57 E5        29.73F
GWINNER        PTCLDY    82  63  51 W5        29.78S
SHEYENNE NWR     N/A     84  65  52 NE5       29.95S
ROLLA            N/A     77  59  53 CALM      29.76F
 ***** THE ABOVE OBSERVATIONS ARE NON NWS ARE NOT QUALITY
       CONTROLLED AND MAY MIS-REPORT RAIN FOR SNOW...
$$

  *****  WEATHER ACROSS NORTHERN MINNESOTA  *****

CITY           SKY/WX    TMP DP  RH WIND       PRES   REMARKS
FLAG ISLAND    PTSUNNY   68  61  77 NW3       29.77S
WARROAD        MOSUNNY   72  64  78 NE10      29.78S
ROSEAU         SUNNY     73  64  73 CALM      29.76S
HALLOCK        SUNNY     79  63  57 NE3       29.74S
THF RVR FALLS  PTSUNNY   77  63  61 N7        29.76S
BAUDETTE       MOSUNNY   74  62  66 NW7       29.77R
WASKISH        CLOUDY    72  64  78 CALM      29.77S
CROOKSTON      SUNNY     79  63  57 N5        29.76R
$$
  *****  WEATHER ACROSS CENTRAL AND WEST MINNESOTA  *****

CITY           SKY/WX    TMP DP  RH WIND       PRES   REMARKS
FOSSTON        MOSUNNY   77  63  61 N6        29.77S
BEMIDJI        CLOUDY    72  62  69 N8        29.77F
PARK RAPIDS    MOSUNNY   78  59  51 N13       29.76S
ELBOW LAKE     FAIR      78  64  61 NW7       29.77S
WADENA         SUNNY     77  61  57 NW10G16   29.76S
DETROIT LAKES  MOSUNNY   77  61  57 NW10      29.78F
MOORHEAD       SUNNY     79  66  65 CALM      29.76S
FERGUS FALLS   SUNNY     79  59  50 NW7       29.75F
MORRIS MN      SUNNY     82  63  51 N10       29.76F
STAPLES        PTSUNNY   75  63  64 NW7       29.75F
$$
  *****  WEATHER ELSEWHERE ACROSS MINNESOTA  *****

CITY           SKY/WX    TMP DP  RH WIND       PRES   REMARKS
DULUTH         PTSUNNY   70  63  78 N8        29.74R
INTRNTL FALLS  CLOUDY    71  59  65 NE7       29.77R
ELY            LGT RAIN  63  59  88 N5        29.76S
CLOQUET        PTSUNNY   72  61  68 NW10      29.74S
WHEATON        SUNNY     77  63  61 NW6       29.78S
BRAINERD       PTSUNNY   74  64  71 NE8       29.76S
HIBBING        CLOUDY    70  61  73 N7        29.75S
ALEXANDRIA     MOSUNNY   79  62  56 NW9       29.78F
SAINT CLOUD    PTSUNNY   80  62  54 W12       29.74F
MINNEAPOLIS    MOSUNNY   80  61  52 NW7       29.74F
$$

  *****  WEATHER ACROSS SOUTH DAKOTA  *****

CITY           SKY/WX    TMP DP  RH WIND       PRES   REMARKS
SIOUX FALLS    MOSUNNY   83  62  49 VRB6      29.81F
BROOKINGS      NOT AVBL
WATERTOWN      SUNNY     81  62  52 NW7       29.81S
HURON          SUNNY     84  59  42 S5        29.78F
SISSETON         N/A     84  65  52 N9        29.76S
ABERDEEN       MOSUNNY   82  59  45 CALM      29.77F
MITCHELL       SUNNY     86  61  42 N3        29.80F
PIERRE         SUNNY     88  58  36 VRB6      29.75F
MOBRIDGE       SUNNY     85  60  42 SE3       29.75F
RAPID CITY     SUNNY     79  62  56 SE3       29.81F
$$

  *****  SOME WEATHER IN NEARBY STATES *****

CITY           SKY/WX    TMP DP  RH WIND       PRES   REMARKS
GLASGOW MT     SUNNY     90  52  27 SW10      29.64F
GREAT FALLS MT MOSUNNY   86  37  17 W9G17     29.75F
CHEYENNE WY    TSTM      68  47  46 W23G36    30.03R
SCOTTSBLUFF NE CLOUDY    92  58  31 E8        29.83F HX  91
OMAHA NE       MOSUNNY   89  61  38 N8        29.81F
DES MOINES IA  MOSUNNY   86  63  45 W9        29.80F
DAVENPORT IA   MOSUNNY   84  64  50 W13       29.75F
CHICAGO IL     CLOUDY    82  63  52 W16G24    29.71F
EAU CLAIRE WI  PTSUNNY   76  63  64 NW7       29.72F
LA CROSSE WI   MOSUNNY   81  62  52 NW12      29.72F
$$

  *****  SOME NATIONAL WEATHER *****

CITY           SKY/WX    TMP DP  RH WIND       PRES   REMARKS
LA GUARDIA NY  PTSUNNY   79  61  53 VRB5      29.89S
RALEIGH NC     MOSUNNY   84  69  60 NE7       29.83F
ATLANTA GA     MOSUNNY   82  73  74 NW7       29.93F
NEW ORLEANS LA PTSUNNY   81  73  76 W6        29.96F
OKLAHOMA CITY  MOSUNNY   94  66  39 S12       29.87F HX  97
ALBUQUERQUE NM PTSUNNY   88  46  23 VRB3      30.02F
SALT LAKE CITY CLOUDY    67  60  78 NE5       29.98F
LOS ANGELES CA PTSUNNY   76  62  62 W14       29.89F
BOISE ID       MOSUNNY   86  51  29 NW9       29.78S
SEATTLE WA     MOSUNNY   77  59  53 SW5       29.84S
$$

*** WEATHER ACROSS MANITOBA...SASKATCHEWAN AND ONTARIO ***
                ***ONTARIO***

CITY           SKY/WX    TMP DP  RH WIND       PRES   REMARKS
GERALDTON      CLOUDY    64  59  82 E6        29.77S
THUNDER BAY    CLOUDY    59  57  94 E9        29.75R
SIOUX LOOKOUT  MOSUNNY   72  55  56 NE5       29.76
TORONTO        MOSUNNY   72  54  53 E12       29.86F
BIG TROUT LK   SUNNY     79  50  36 S6        29.76F
PICKLE LAKE    MOSUNNY   75  52  43 VRB8      29.77F
DRYDEN         CLOUDY    66  59  77 NE5       29.79R
KENORA         PTSUNNY   70  61  73 E6        29.79S
$$
                *** MANITOBA***

CITY           SKY/WX    TMP DP  RH WIND       PRES   REMARKS
BRANDON        CLOUDY    81  64  57 N6        29.74
DAUPHIN        SUNNY     81  63  54 VRB3      29.71F
ISLAND LAKE    MOSUNNY   79  63  57 S3        29.72S
PILOT MOUND      N/A     81  63  54 N2          N/A
THE PAS        PTSUNNY   82  59  44 SW6       29.62S SMOKE
THOMPSON       MOSUNNY   77  64  65 S8        29.60S
WINNIPEG       PTSUNNY   79  63  57 VRB6      29.74F
LYNN LAKE      CLOUDY    64  57  77 MISG      29.63R
CHURCHILL      LGT RAIN  45  43  93 E18G26    29.80F
GILLAM         CLOUDY    61  54  77 SE7       29.70F
$$
                ***SASKATCHEWAN***

CITY           SKY/WX    TMP DP  RH WIND       PRES   REMARKS
ESTEVAN        PTSUNNY   84  57  39 SE6       29.72F
KINDERSLEY     PTSUNNY   75  59  57 NE13G18   29.65S
LLOYDMINSTER   CLOUDY    73  57  56 NW7       29.67S
PRINCE ALBERT  CLOUDY    77  61  57 CALM      29.63S
REGINA         SUNNY     84  59  42 SE15      29.67F
YORKTON        SUNNY     81  52  36 S8        29.71F
N. BATTLEFORD  PTSUNNY   64  61  88 W3        29.69R
LA RONGE       CLOUDY    72  59  64 W7        29.64S
SASKATOON      PTSUNNY   86  59  39 S7        29.60F
SWIFT CURRENT  SUNNY     88  48  25 SW14G23   29.62F
$$
NOTE: THESE ARE AUTOMATED STATIONS WITH LIMITED QUALITY CONTROL
      "FAIR" INDICATES FEW OR NO CLOUDS BELOW 12,000 FEET WITH NO
      SIGNIFICANT WEATHER AND/OR OBSTRUCTIONS TO VISIBILITY.
      SKY/WX - SKY CONDITION AND SIGNIFICANT WEATHER.
      TMP - AIR TEMPERATURE.    DP   - DEWPOINT TEMPERATURE.
      RH  - RELATIVE HUMIDITY.  PRES - PRESSURE.
      HX  - HEAT INDEX.         WCI  - WIND CHILL INDEX.
$


USA.gov is the U.S. government's official web portal to all federal, state and local government web resources and services.